SL-8 R/B

Satellite information

Favourite Embed

Satellite Type and Status

ROCKET BODYIN ORBIT

Key statistics

Satellite SL-8 R/B at a glance.

Uptime

15447

Days in orbit

Revolutions

≈ 13.8

Per day

Orbit

LEO

Low Earth Orbit

Inclination

82.9

Latest

Satellite identification and parameters

Extended collection of information and parameters for SL-8 R/B.

Object identification

Identified? True

Debris? False

Object name: SL-8 R/B

International designator: 1983-021B

Object number (NORAD): 13917

Object ID (CCSDS): 13917

Country: COMMONWEALTH OF INDEPENDENT STATES (CIS)

Current information (Y/N): Y

RCS size: LARGE

Orbital parameters

Period: 104.568 minutes

Inclination: 82.9415 deg

SMA: 7352.365 km

Apoapsis: 994.154 km

Periapsis: 954.306 km

RAAN: 221.0383 deg

Eccentricy: 0.0027099

Argument of periapsis: 299.926 deg

Mean anomaly: 174.2499 deg

Mean motion: 13.77089515 rev/day

Mean motion (dot): 0.00000072 rev/day2

B* drag term: 0.000058099 1/REarth

Two-line elements (TLE)

Creation date: July 6, 2025, 6:05 p.m.

Reference frame: TEME

Reference center: EARTH

Epoch: July 6, 2025, 2:58 p.m. UTC

TLE line 0: 0 SL-8 R/B

TLE line 1: 1 13917U 83021B 25187.62384867 .00000072 00000-0 58099-4 0 9996

TLE line 2: 2 13917 82.9415 221.0383 0027099 299.9260 174.2499 13.77089515124116

Live tracking on map

Real-time ground track for satellite SL-8 R/B.

In-orbit conjunctions

A list of the most updated potential collisions computed for object SL-8 R/B.

Target Orbit TCA Probability of collision Miss distance Type
COSMOS 1513 LEO 2024-05-31 23:15:57 0.0002253426 97.0 (m) PAYLOAD

Associated space launch

Civilian navigation satellite equivalent to the purely military Parus

SL-8 R/B was lifted into orbit during the mission ‘Kosmos-3M | Nadezhda 2’, on board a Kosmos-3M space rocket.

The launch took place on March 24, 1983, 8:55 p.m. from 132/2.

For more information about the launch, click the button.

Launch to space Kosmos-3M | Nadezhda 2
Kosmos-3M | Nadezhda 2

Agency: N/A

Status: Launch Successful

Launch date: March 24, 1983, 8:55 p.m. UTC

Rocket: Kosmos-3M

Launch pad: 132/2

Location: Plesetsk Cosmodrome, Russian Federation

...

Latest news about this satellite

There are no fresh news available about this satellite. Check back as we update our databases every day.


Newsletter sign-up

Weekly statistics, charts and insights to help you stay on top of the space industry.